• In India
  • List of Countries
  • For 7 days
  • Water Temperature
  • Satellite Maps
  • Weather Map
  • Weather Widgets
  • user-avatar
    Login

    Hourly Weather Linz

    Today, 11 December, Monday

    Time Temperature Precipitation Wind Pressure Humidity
    00:00 +1°C° 0 mm 2 mps 717 mmHg 81%
    01:00 +1°C° 0 mm 2 mps 716 mmHg 81%
    02:00 +1°C° 0 mm 2 mps 716 mmHg 81%
    03:00 +1°C° 0 mm 2 mps 716 mmHg 81%
    04:00 +2°C° 0 mm 1 mps 715 mmHg 81%
    05:00 +1°C° 0 mm 2 mps 715 mmHg 81%
    06:00 +2°C° 0 mm 2 mps 715 mmHg 81%
    07:00 +2°C° 0 mm 2 mps 714 mmHg 81%
    08:00 +3°C° 0 mm 2 mps 714 mmHg 80%
    09:00 +4°C° 0 mm 2 mps 714 mmHg 79%
    10:00 +6°C° 0 mm 2 mps 713 mmHg 77%
    11:00 +7°C° 0 mm 2 mps 713 mmHg 77%
    12:00 +8°C° 0 mm 3 mps 712 mmHg 77%
    13:00 +9°C° 0 mm 3 mps 712 mmHg 77%
    14:00 +9°C° 0 mm 3 mps 712 mmHg 79%
    15:00 +8°C° 0 mm 4 mps 712 mmHg 81%
    16:00 +7°C° 0 mm 4 mps 712 mmHg 83%
    17:00 +7°C° 0 mm 4 mps 712 mmHg 84%
    18:00 +8°C° 0 mm 3 mps 713 mmHg 84%
    19:00 +8°C° 0 mm 3 mps 713 mmHg 85%
    20:00 +7°C° 0 mm 3 mps 714 mmHg 86%
    21:00 +5°C° 0 mm 3 mps 714 mmHg 88%
    22:00 +5°C° 0 mm 2 mps 715 mmHg 89%
    23:00 +5°C° 0 mm 2 mps 716 mmHg 90%

    Tomorrow, 12 December, Tuesday

    Time Temperature Precipitation Wind Pressure Humidity
    00:00 +4°C° 0 mm 2 mps 716 mmHg 91%
    01:00 +4°C° 0 mm 1 mps 717 mmHg 92%
    02:00 +4°C° 0.1 mm 2 mps 717 mmHg 92%
    03:00 +4°C° 0.1 mm 2 mps 718 mmHg 93%
    04:00 +4°C° 0.1 mm 2 mps 719 mmHg 93%
    05:00 +4°C° 0.9 mm 2 mps 720 mmHg 92%
    06:00 +3°C° 0.9 mm 3 mps 721 mmHg 91%
    07:00 +3°C° 0.9 mm 3 mps 722 mmHg 91%
    08:00 +3°C° 0.7 mm 4 mps 723 mmHg 89%
    09:00 +3°C° 0.7 mm 4 mps 724 mmHg 88%
    10:00 +3°C° 0.7 mm 4 mps 726 mmHg 87%
    11:00 +3°C° 0.3 mm 4 mps 726 mmHg 86%
    12:00 +1°C° 0.3 mm 4 mps 727 mmHg 86%
    13:00 +1°C° 0.3 mm 4 mps 728 mmHg 86%
    14:00 +1°C° 0.2 mm 4 mps 728 mmHg 86%
    15:00 0°C° 0.2 mm 4 mps 729 mmHg 87%
    16:00 +1°C° 0.2 mm 3 mps 730 mmHg 87%
    17:00 0°C° 0 mm 3 mps 731 mmHg 87%
    18:00 0°C° 0 mm 3 mps 732 mmHg 87%
    19:00 0°C° 0 mm 3 mps 732 mmHg 87%
    20:00 0°C° 0 mm 3 mps 733 mmHg 86%
    21:00 0°C° 0 mm 3 mps 734 mmHg 86%
    22:00 +1°C° 0 mm 2 mps 734 mmHg 86%
    23:00 +1°C° 0 mm 2 mps 735 mmHg 86%

    Day after tomorrow, 13 December, Wednesday

    Time Temperature Precipitation Wind Pressure Humidity
    00:00 +1°C° 0 mm 2 mps 735 mmHg 87%
    01:00 +1°C° 0 mm 2 mps 735 mmHg 87%
    02:00 -1°C° 0 mm 2 mps 735 mmHg 87%
    03:00 -1°C° 0 mm 2 mps 735 mmHg 88%
    04:00 +1°C° 0 mm 1 mps 735 mmHg 88%
    05:00 +1°C° 0 mm 1 mps 736 mmHg 88%
    06:00 +1°C° 0 mm 1 mps 736 mmHg 89%
    07:00 0°C° 0 mm 1 mps 736 mmHg 89%
    08:00 +1°C° 0 mm 1 mps 736 mmHg 86%
    09:00 +1°C° 0 mm 1 mps 736 mmHg 84%
    10:00 +2°C° 0 mm 1 mps 736 mmHg 82%
    11:00 +3°C° 0 mm 1 mps 735 mmHg 79%
    12:00 +4°C° 0 mm 1 mps 734 mmHg 77%
    13:00 +4°C° 0 mm 1 mps 734 mmHg 74%
    14:00 +3°C° 0 mm 1 mps 733 mmHg 78%
    15:00 +2°C° 0 mm 1 mps 732 mmHg 82%
    16:00 +2°C° 0 mm 1 mps 731 mmHg 86%
    17:00 +1°C° 0 mm 1 mps 731 mmHg 85%
    18:00 -1°C° 0 mm 2 mps 731 mmHg 85%
    19:00 -1°C° 0 mm 2 mps 730 mmHg 85%
    20:00 +1°C° 0 mm 1 mps 730 mmHg 85%
    21:00 +1°C° 0 mm 1 mps 730 mmHg 84%
    22:00 +2°C° 0 mm 1 mps 730 mmHg 84%
    23:00 +2°C° 0.1 mm 1 mps 729 mmHg 84%

    14 December, Thursday

    Time Temperature Precipitation Wind Pressure Humidity
    00:00 +1°C° 0.1 mm 2 mps 729 mmHg 84%
    01:00 +1°C° 0.1 mm 2 mps 729 mmHg 84%
    02:00 +1°C° 0.2 mm 2 mps 728 mmHg 84%
    03:00 +1°C° 0.2 mm 2 mps 728 mmHg 85%
    04:00 +2°C° 0.2 mm 1 mps 727 mmHg 85%
    05:00 +1°C° 0.1 mm 2 mps 727 mmHg 84%
    06:00 +1°C° 0.1 mm 2 mps 727 mmHg 83%
    07:00 +1°C° 0.1 mm 2 mps 727 mmHg 81%
    08:00 +3°C° 0.6 mm 1 mps 727 mmHg 82%
    09:00 +3°C° 0.6 mm 1 mps 727 mmHg 83%
    10:00 +4°C° 0.6 mm 1 mps 727 mmHg 84%
    11:00 +4°C° 0.5 mm 1 mps 726 mmHg 85%
    12:00 +5°C° 0.5 mm 1 mps 726 mmHg 87%
    13:00 +5°C° 0.5 mm 1 mps 725 mmHg 88%
    14:00 +5°C° 0.2 mm 1 mps 724 mmHg 88%
    15:00 +4°C° 0.2 mm 1 mps 724 mmHg 89%
    16:00 +4°C° 0.2 mm 1 mps 723 mmHg 89%
    17:00 +4°C° 0.3 mm 1 mps 723 mmHg 88%
    18:00 +3°C° 0.3 mm 1 mps 722 mmHg 87%
    19:00 +3°C° 0.3 mm 1 mps 722 mmHg 86%
    20:00 +2°C° 0 mm 2 mps 721 mmHg 85%
    21:00 +2°C° 0 mm 2 mps 720 mmHg 85%
    22:00 +2°C° 0 mm 2 mps 719 mmHg 84%
    23:00 +2°C° 0.2 mm 2 mps 719 mmHg 85%

    15 December, Friday

    Time Temperature Precipitation Wind Pressure Humidity
    00:00 +2°C° 0.2 mm 2 mps 719 mmHg 85%
    01:00 +2°C° 0.2 mm 2 mps 719 mmHg 86%
    02:00 +2°C° 0.7 mm 2 mps 720 mmHg 89%
    03:00 +2°C° 0.7 mm 2 mps 721 mmHg 91%
    04:00 +1°C° 0.7 mm 3 mps 722 mmHg 94%
    05:00 +2°C° 0.3 mm 2 mps 722 mmHg 94%
    06:00 +2°C° 0.3 mm 2 mps 723 mmHg 93%
    07:00 +2°C° 0.3 mm 2 mps 724 mmHg 93%
    08:00 +2°C° 0.1 mm 2 mps 724 mmHg 92%
    09:00 +2°C° 0.1 mm 2 mps 725 mmHg 91%
    10:00 +3°C° 0.1 mm 2 mps 725 mmHg 90%
    11:00 +3°C° 0.1 mm 2 mps 725 mmHg 90%
    12:00 +3°C° 0.1 mm 2 mps 725 mmHg 90%
    13:00 +3°C° 0.1 mm 2 mps 725 mmHg 90%
    14:00 +4°C° 0.1 mm 1 mps 724 mmHg 90%
    15:00 +3°C° 0.1 mm 1 mps 724 mmHg 90%
    16:00 +3°C° 0.1 mm 1 mps 724 mmHg 91%
    17:00 +2°C° 0.2 mm 1 mps 725 mmHg 91%
    18:00 +2°C° 0.2 mm 1 mps 725 mmHg 92%
    19:00 +2°C° 0.2 mm 1 mps 725 mmHg 92%
    20:00 +2°C° 0.1 mm 1 mps 725 mmHg 92%
    21:00 +1°C° 0.1 mm 1 mps 725 mmHg 92%
    22:00 +1°C° 0.1 mm 1 mps 725 mmHg 92%
    23:00 +1°C° 0.1 mm 1 mps 725 mmHg 92%

    16 December, Saturday

    Time Temperature Precipitation Wind Pressure Humidity
    00:00 +1°C° 0.1 mm 1 mps 725 mmHg 92%
    01:00 0°C° 0.1 mm 0 mps 725 mmHg 92%
    02:00 +1°C° 0.1 mm 1 mps 725 mmHg 93%
    03:00 +1°C° 0.1 mm 1 mps 725 mmHg 93%
    04:00 +1°C° 0.1 mm 1 mps 725 mmHg 94%
    05:00 +1°C° 0.1 mm 1 mps 725 mmHg 94%
    06:00 +1°C° 0.1 mm 1 mps 726 mmHg 94%
    07:00 +1°C° 0.1 mm 1 mps 726 mmHg 95%
    08:00 +1°C° 0.1 mm 1 mps 726 mmHg 94%
    09:00 +1°C° 0.1 mm 1 mps 727 mmHg 93%
    10:00 +2°C° 0.1 mm 1 mps 727 mmHg 92%
    11:00 +1°C° 0 mm 2 mps 727 mmHg 91%
    12:00 +1°C° 0 mm 2 mps 727 mmHg 89%
    13:00 +1°C° 0 mm 2 mps 727 mmHg 88%
    14:00 +1°C° 0 mm 2 mps 728 mmHg 90%
    15:00 +1°C° 0 mm 2 mps 728 mmHg 91%
    16:00 -1°C° 0 mm 2 mps 728 mmHg 93%
    17:00 -1°C° 0.1 mm 2 mps 729 mmHg 94%
    18:00 -1°C° 0.1 mm 2 mps 730 mmHg 94%
    19:00 -1°C° 0.1 mm 2 mps 730 mmHg 95%
    20:00 -1°C° 0.2 mm 3 mps 731 mmHg 94%
    21:00 -1°C° 0.2 mm 3 mps 731 mmHg 93%
    22:00 -1°C° 0.2 mm 3 mps 732 mmHg 93%
    23:00 -1°C° 0.1 mm 3 mps 732 mmHg 93%
    Show more